Year,Month,Day,Hour,Minute,Value (Times are PST for insolation in W/m^2)
2010,02,27,00,00,0.00
2010,02,27,00,01,0.00
2010,02,27,00,02,0.00
2010,02,27,00,03,0.00
2010,02,27,00,04,0.00
2010,02,27,00,05,0.00
2010,02,27,00,06,0.00
2010,02,27,00,07,0.00
2010,02,27,00,08,0.00
2010,02,27,00,09,0.00
2010,02,27,00,10,0.00
2010,02,27,00,11,0.00
2010,02,27,00,12,0.00
2010,02,27,00,13,0.00
2010,02,27,00,14,0.00
2010,02,27,00,15,0.00
2010,02,27,00,16,0.00
2010,02,27,00,17,0.00
2010,02,27,00,18,0.00
2010,02,27,00,19,0.00
2010,02,27,00,20,0.00
2010,02,27,00,21,0.00
2010,02,27,00,22,0.00
2010,02,27,00,23,0.00
2010,02,27,00,24,0.00
2010,02,27,00,25,0.00
2010,02,27,00,26,0.00
2010,02,27,00,27,0.00
2010,02,27,00,28,0.00
2010,02,27,00,29,0.00
2010,02,27,00,30,0.00
2010,02,27,00,31,0.00
2010,02,27,00,32,0.00
2010,02,27,00,33,0.00
2010,02,27,00,34,0.00
2010,02,27,00,35,0.00
2010,02,27,00,36,0.00
2010,02,27,00,37,0.00
2010,02,27,00,38,0.00
2010,02,27,00,39,0.00
2010,02,27,00,40,0.00
2010,02,27,00,41,0.00
2010,02,27,00,42,0.00
2010,02,27,00,43,0.00
2010,02,27,00,44,0.00
2010,02,27,00,45,0.00
2010,02,27,00,46,0.00
2010,02,27,00,47,0.00
2010,02,27,00,48,0.00
2010,02,27,00,49,0.00
2010,02,27,00,50,0.00
2010,02,27,00,51,0.00
2010,02,27,00,52,0.00
2010,02,27,00,53,0.00
2010,02,27,00,54,0.00
2010,02,27,00,55,0.00
2010,02,27,00,56,0.00
2010,02,27,00,57,0.00
2010,02,27,00,58,0.00
2010,02,27,00,59,0.00
2010,02,27,01,00,0.00
2010,02,27,01,01,0.00
2010,02,27,01,02,0.00
2010,02,27,01,03,0.00
2010,02,27,01,04,0.00
2010,02,27,01,05,0.00
2010,02,27,01,06,0.00
2010,02,27,01,07,0.00
2010,02,27,01,08,0.00
2010,02,27,01,09,0.00
2010,02,27,01,10,0.00
2010,02,27,01,11,0.00
2010,02,27,01,12,0.00
2010,02,27,01,13,0.00
2010,02,27,01,14,0.00
2010,02,27,01,15,0.00
2010,02,27,01,16,0.00
2010,02,27,01,17,0.00
2010,02,27,01,18,0.00
2010,02,27,01,19,0.00
2010,02,27,01,20,0.00
2010,02,27,01,21,0.00
2010,02,27,01,22,0.00
2010,02,27,01,23,0.00
2010,02,27,01,24,0.00
2010,02,27,01,25,0.00
2010,02,27,01,26,0.00
2010,02,27,01,27,0.00
2010,02,27,01,28,0.00
2010,02,27,01,29,0.00
2010,02,27,01,30,0.00
2010,02,27,01,31,0.00
2010,02,27,01,32,0.00
2010,02,27,01,33,0.00
2010,02,27,01,34,0.00
2010,02,27,01,35,0.00
2010,02,27,01,36,0.00
2010,02,27,01,37,0.00
2010,02,27,01,38,0.00
2010,02,27,01,39,0.00
2010,02,27,01,40,0.00
2010,02,27,01,41,0.00
2010,02,27,01,42,0.00
2010,02,27,01,43,0.00
2010,02,27,01,44,0.00
2010,02,27,01,45,0.00
2010,02,27,01,46,0.00
2010,02,27,01,47,0.00
2010,02,27,01,48,0.00
2010,02,27,01,49,0.00
2010,02,27,01,50,0.00
2010,02,27,01,51,0.00
2010,02,27,01,52,0.00
2010,02,27,01,53,0.00
2010,02,27,01,54,0.00
2010,02,27,01,55,0.00
2010,02,27,01,56,0.00
2010,02,27,01,57,0.00
2010,02,27,01,58,0.00
2010,02,27,01,59,0.00
2010,02,27,02,00,0.00
2010,02,27,02,01,0.00
2010,02,27,02,02,0.00
2010,02,27,02,03,0.00
2010,02,27,02,04,0.00
2010,02,27,02,05,0.00
2010,02,27,02,06,0.00
2010,02,27,02,07,0.00
2010,02,27,02,08,0.00
2010,02,27,02,09,0.00
2010,02,27,02,10,0.00
2010,02,27,02,11,0.00
2010,02,27,02,12,0.00
2010,02,27,02,13,0.00
2010,02,27,02,14,0.00
2010,02,27,02,15,0.00
2010,02,27,02,16,0.00
2010,02,27,02,17,0.00
2010,02,27,02,18,0.00
2010,02,27,02,19,0.00
2010,02,27,02,20,0.00
2010,02,27,02,21,0.00
2010,02,27,02,22,0.00
2010,02,27,02,23,0.00
2010,02,27,02,24,0.00
2010,02,27,02,25,0.00
2010,02,27,02,26,0.00
2010,02,27,02,27,0.00
2010,02,27,02,28,0.00
2010,02,27,02,29,0.00
2010,02,27,02,30,0.00
2010,02,27,02,31,0.00
2010,02,27,02,32,0.00
2010,02,27,02,33,0.00
2010,02,27,02,34,0.00
2010,02,27,02,35,0.00
2010,02,27,02,36,0.00
2010,02,27,02,37,0.00
2010,02,27,02,38,0.00
2010,02,27,02,39,0.00
2010,02,27,02,40,0.00
2010,02,27,02,41,0.00
2010,02,27,02,42,0.00
2010,02,27,02,43,0.00
2010,02,27,02,44,0.00
2010,02,27,02,45,0.00
2010,02,27,02,46,0.00
2010,02,27,02,47,0.00
2010,02,27,02,48,0.00
2010,02,27,02,49,0.00
2010,02,27,02,50,0.00
2010,02,27,02,51,0.00
2010,02,27,02,52,0.00
2010,02,27,02,53,0.00
2010,02,27,02,54,0.00
2010,02,27,02,55,0.00
2010,02,27,02,56,0.00
2010,02,27,02,57,0.00
2010,02,27,02,58,0.00
2010,02,27,02,59,0.00
2010,02,27,03,00,0.00
2010,02,27,03,01,0.00
2010,02,27,03,02,0.00
2010,02,27,03,03,0.00
2010,02,27,03,04,0.00
2010,02,27,03,05,0.00
2010,02,27,03,06,0.00
2010,02,27,03,07,0.00
2010,02,27,03,08,0.00
2010,02,27,03,09,0.00
2010,02,27,03,10,0.00
2010,02,27,03,11,0.00
2010,02,27,03,12,0.00
2010,02,27,03,13,0.00
2010,02,27,03,14,0.00
2010,02,27,03,15,0.00
2010,02,27,03,16,0.00
2010,02,27,03,17,0.00
2010,02,27,03,18,0.00
2010,02,27,03,19,0.00
2010,02,27,03,20,0.00
2010,02,27,03,21,0.00
2010,02,27,03,22,0.00
2010,02,27,03,23,0.00
2010,02,27,03,24,0.00
2010,02,27,03,25,0.00
2010,02,27,03,26,0.00
2010,02,27,03,27,0.00
2010,02,27,03,28,0.00
2010,02,27,03,29,0.00
2010,02,27,03,30,0.00
2010,02,27,03,31,0.00
2010,02,27,03,32,0.00
2010,02,27,03,33,0.00
2010,02,27,03,34,0.00
2010,02,27,03,35,0.00
2010,02,27,03,36,0.00
2010,02,27,03,37,0.00
2010,02,27,03,38,0.00
2010,02,27,03,39,0.00
2010,02,27,03,40,0.00
2010,02,27,03,41,0.00
2010,02,27,03,42,0.00
2010,02,27,03,43,0.00
2010,02,27,03,44,0.00
2010,02,27,03,45,0.00
2010,02,27,03,46,0.00
2010,02,27,03,47,0.00
2010,02,27,03,48,0.00
2010,02,27,03,49,0.00
2010,02,27,03,50,0.00
2010,02,27,03,51,0.00
2010,02,27,03,52,0.00
2010,02,27,03,53,0.00
2010,02,27,03,54,0.00
2010,02,27,03,55,0.00
2010,02,27,03,56,0.00
2010,02,27,03,57,0.00
2010,02,27,03,58,0.00
2010,02,27,03,59,0.00
2010,02,27,04,00,0.00
2010,02,27,04,01,0.00
2010,02,27,04,02,0.00
2010,02,27,04,03,0.00
2010,02,27,04,04,0.00
2010,02,27,04,05,0.00
2010,02,27,04,06,0.00
2010,02,27,04,07,0.00
2010,02,27,04,08,0.00
2010,02,27,04,09,0.00
2010,02,27,04,10,0.00
2010,02,27,04,11,0.00
2010,02,27,04,12,0.00
2010,02,27,04,13,0.00
2010,02,27,04,14,0.00
2010,02,27,04,15,0.00
2010,02,27,04,16,0.00
2010,02,27,04,17,0.00
2010,02,27,04,18,0.00
2010,02,27,04,19,0.00
2010,02,27,04,20,0.00
2010,02,27,04,21,0.00
2010,02,27,04,22,0.00
2010,02,27,04,23,0.00
2010,02,27,04,24,0.00
2010,02,27,04,25,0.00
2010,02,27,04,26,0.00
2010,02,27,04,27,0.00
2010,02,27,04,28,0.00
2010,02,27,04,29,0.00
2010,02,27,04,30,0.00
2010,02,27,04,31,0.00
2010,02,27,04,32,0.00
2010,02,27,04,33,0.00
2010,02,27,04,34,0.00
2010,02,27,04,35,0.00
2010,02,27,04,36,0.00
2010,02,27,04,37,0.00
2010,02,27,04,38,0.00
2010,02,27,04,39,0.00
2010,02,27,04,40,0.00
2010,02,27,04,41,0.00
2010,02,27,04,42,0.00
2010,02,27,04,43,0.00
2010,02,27,04,44,0.00
2010,02,27,04,45,0.00
2010,02,27,04,46,0.00
2010,02,27,04,47,0.00
2010,02,27,04,48,0.00
2010,02,27,04,49,0.00
2010,02,27,04,50,0.00
2010,02,27,04,51,0.00
2010,02,27,04,52,0.00
2010,02,27,04,53,0.00
2010,02,27,04,54,0.00
2010,02,27,04,55,0.00
2010,02,27,04,56,0.00
2010,02,27,04,57,0.00
2010,02,27,04,58,0.00
2010,02,27,04,59,0.00
2010,02,27,05,00,0.00
2010,02,27,05,01,0.00
2010,02,27,05,02,0.00
2010,02,27,05,03,0.00
2010,02,27,05,04,0.00
2010,02,27,05,05,0.00
2010,02,27,05,06,0.00
2010,02,27,05,07,0.00
2010,02,27,05,08,0.00
2010,02,27,05,09,0.00
2010,02,27,05,10,0.00
2010,02,27,05,11,0.00
2010,02,27,05,12,0.00
2010,02,27,05,13,0.00
2010,02,27,05,14,0.00
2010,02,27,05,15,0.00
2010,02,27,05,16,0.00
2010,02,27,05,17,0.00
2010,02,27,05,18,0.00
2010,02,27,05,19,0.00
2010,02,27,05,20,0.00
2010,02,27,05,21,0.00
2010,02,27,05,22,0.00
2010,02,27,05,23,0.00
2010,02,27,05,24,0.00
2010,02,27,05,25,0.00
2010,02,27,05,26,0.00
2010,02,27,05,27,0.00
2010,02,27,05,28,0.00
2010,02,27,05,29,0.00
2010,02,27,05,30,0.00
2010,02,27,05,31,0.00
2010,02,27,05,32,0.00
2010,02,27,05,33,0.00
2010,02,27,05,34,0.00
2010,02,27,05,35,0.00
2010,02,27,05,36,0.00
2010,02,27,05,37,0.00
2010,02,27,05,38,0.00
2010,02,27,05,39,0.00
2010,02,27,05,40,0.00
2010,02,27,05,41,0.00
2010,02,27,05,42,0.00
2010,02,27,05,43,0.00
2010,02,27,05,44,0.00
2010,02,27,05,45,0.00
2010,02,27,05,46,0.00
2010,02,27,05,47,0.00
2010,02,27,05,48,0.00
2010,02,27,05,49,0.00
2010,02,27,05,50,0.00
2010,02,27,05,51,0.00
2010,02,27,05,52,0.00
2010,02,27,05,53,0.00
2010,02,27,05,54,0.00
2010,02,27,05,55,0.00
2010,02,27,05,56,0.00
2010,02,27,05,57,0.00
2010,02,27,05,58,0.00
2010,02,27,05,59,0.00
2010,02,27,06,00,0.00
2010,02,27,06,01,0.00
2010,02,27,06,02,0.00
2010,02,27,06,03,0.00
2010,02,27,06,04,0.00
2010,02,27,06,05,0.00
2010,02,27,06,06,0.00
2010,02,27,06,07,0.00
2010,02,27,06,08,0.00
2010,02,27,06,09,0.00
2010,02,27,06,10,0.00
2010,02,27,06,11,0.00
2010,02,27,06,12,0.00
2010,02,27,06,13,0.00
2010,02,27,06,14,0.00
2010,02,27,06,15,0.00
2010,02,27,06,16,0.00
2010,02,27,06,17,0.00
2010,02,27,06,18,0.00
2010,02,27,06,19,0.00
2010,02,27,06,20,0.00
2010,02,27,06,21,0.00
2010,02,27,06,22,0.00
2010,02,27,06,23,0.00
2010,02,27,06,24,0.00
2010,02,27,06,25,0.00
2010,02,27,06,26,0.00
2010,02,27,06,27,0.00
2010,02,27,06,28,0.00
2010,02,27,06,29,0.00
2010,02,27,06,30,0.00
2010,02,27,06,31,0.00
2010,02,27,06,32,0.00
2010,02,27,06,33,0.00
2010,02,27,06,34,0.00
2010,02,27,06,35,0.00
2010,02,27,06,36,0.00
2010,02,27,06,37,0.00
2010,02,27,06,38,0.00
2010,02,27,06,39,0.00
2010,02,27,06,40,0.00
2010,02,27,06,41,0.00
2010,02,27,06,42,0.00
2010,02,27,06,43,0.00
2010,02,27,06,44,0.00
2010,02,27,06,45,0.00
2010,02,27,06,46,0.00
2010,02,27,06,47,0.00
2010,02,27,06,48,0.00
2010,02,27,06,49,0.00
2010,02,27,06,50,0.00
2010,02,27,06,51,0.00
2010,02,27,06,52,0.00
2010,02,27,06,53,0.00
2010,02,27,06,54,0.00
2010,02,27,06,55,0.00
2010,02,27,06,56,0.00
2010,02,27,06,57,0.00
2010,02,27,06,58,0.00
2010,02,27,06,59,0.00
2010,02,27,07,00,0.00
2010,02,27,07,01,0.00
2010,02,27,07,02,0.00
2010,02,27,07,03,0.00
2010,02,27,07,04,0.00
2010,02,27,07,05,0.00
2010,02,27,07,06,0.00
2010,02,27,07,07,0.00
2010,02,27,07,08,0.00
2010,02,27,07,09,0.00
2010,02,27,07,10,0.00
2010,02,27,07,11,4.80
2010,02,27,07,12,5.00
2010,02,27,07,13,5.00
2010,02,27,07,14,5.00
2010,02,27,07,15,5.00
2010,02,27,07,16,5.00
2010,02,27,07,17,5.00
2010,02,27,07,18,5.00
2010,02,27,07,19,7.00
2010,02,27,07,20,7.00
2010,02,27,07,21,7.00
2010,02,27,07,22,7.00
2010,02,27,07,23,7.00
2010,02,27,07,24,7.00
2010,02,27,07,25,7.00
2010,02,27,07,26,7.00
2010,02,27,07,27,7.00
2010,02,27,07,28,7.00
2010,02,27,07,29,8.90
2010,02,27,07,30,9.00
2010,02,27,07,31,11.00
2010,02,27,07,32,11.00
2010,02,27,07,33,11.00
2010,02,27,07,34,11.00
2010,02,27,07,35,11.00
2010,02,27,07,36,11.00
2010,02,27,07,37,11.00
2010,02,27,07,38,11.00
2010,02,27,07,39,11.00
2010,02,27,07,40,11.00
2010,02,27,07,41,12.00
2010,02,27,07,42,12.00
2010,02,27,07,43,13.90
2010,02,27,07,44,14.00
2010,02,27,07,45,14.00
2010,02,27,07,46,15.90
2010,02,27,07,47,16.00
2010,02,27,07,48,17.90
2010,02,27,07,49,18.00
2010,02,27,07,50,19.00
2010,02,27,07,51,21.00
2010,02,27,07,52,21.00
2010,02,27,07,53,23.00
2010,02,27,07,54,23.00
2010,02,27,07,55,23.00
2010,02,27,07,56,25.00
2010,02,27,07,57,25.00
2010,02,27,07,58,25.00
2010,02,27,07,59,25.00
2010,02,27,08,00,19.00
2010,02,27,08,01,18.00
2010,02,27,08,02,18.00
2010,02,27,08,03,19.00
2010,02,27,08,04,19.00
2010,02,27,08,05,21.00
2010,02,27,08,06,19.00
2010,02,27,08,07,19.00
2010,02,27,08,08,21.00
2010,02,27,08,09,21.00
2010,02,27,08,10,21.00
2010,02,27,08,11,21.00
2010,02,27,08,12,23.00
2010,02,27,08,13,21.10
2010,02,27,08,14,22.90
2010,02,27,08,15,21.10
2010,02,27,08,16,21.00
2010,02,27,08,17,21.00
2010,02,27,08,18,19.10
2010,02,27,08,19,20.90
2010,02,27,08,20,23.00
2010,02,27,08,21,23.00
2010,02,27,08,22,23.00
2010,02,27,08,23,24.90
2010,02,27,08,24,29.80
2010,02,27,08,25,32.80
2010,02,27,08,26,35.00
2010,02,27,08,27,35.00
2010,02,27,08,28,36.90
2010,02,27,08,29,39.00
2010,02,27,08,30,41.80
2010,02,27,08,31,40.00
2010,02,27,08,32,40.00
2010,02,27,08,33,37.00
2010,02,27,08,34,37.00
2010,02,27,08,35,37.00
2010,02,27,08,36,39.00
2010,02,27,08,37,42.00
2010,02,27,08,38,42.00
2010,02,27,08,39,40.00
2010,02,27,08,40,40.00
2010,02,27,08,41,39.00
2010,02,27,08,42,41.80
2010,02,27,08,43,40.10
2010,02,27,08,44,41.90
2010,02,27,08,45,42.00
2010,02,27,08,46,43.90
2010,02,27,08,47,45.90
2010,02,27,08,48,49.00
2010,02,27,08,49,49.00
2010,02,27,08,50,49.00
2010,02,27,08,51,46.20
2010,02,27,08,52,48.80
2010,02,27,08,53,50.90
2010,02,27,08,54,49.10
2010,02,27,08,55,52.80
2010,02,27,08,56,53.00
2010,02,27,08,57,56.00
2010,02,27,08,58,56.00
2010,02,27,08,59,53.20
2010,02,27,09,00,53.00
2010,02,27,09,01,53.00
2010,02,27,09,02,54.00
2010,02,27,09,03,54.00
2010,02,27,09,04,54.00
2010,02,27,09,05,56.00
2010,02,27,09,06,56.00
2010,02,27,09,07,54.00
2010,02,27,09,08,54.00
2010,02,27,09,09,47.00
2010,02,27,09,10,42.20
2010,02,27,09,11,37.20
2010,02,27,09,12,35.00
2010,02,27,09,13,37.00
2010,02,27,09,14,44.00
2010,02,27,09,15,49.00
2010,02,27,09,16,44.00
2010,02,27,09,17,44.00
2010,02,27,09,18,40.00
2010,02,27,09,19,42.00
2010,02,27,09,20,42.00
2010,02,27,09,21,44.00
2010,02,27,09,22,49.00
2010,02,27,09,23,53.00
2010,02,27,09,24,53.00
2010,02,27,09,25,53.00
2010,02,27,09,26,54.00
2010,02,27,09,27,54.00
2010,02,27,09,28,58.00
2010,02,27,09,29,62.00
2010,02,27,09,30,62.00
2010,02,27,09,31,63.00
2010,02,27,09,32,64.90
2010,02,27,09,33,70.00
2010,02,27,09,34,74.00
2010,02,27,09,35,75.90
2010,02,27,09,36,74.00
2010,02,27,09,37,78.80
2010,02,27,09,38,77.00
2010,02,27,09,39,76.00
2010,02,27,09,40,76.00
2010,02,27,09,41,76.00
2010,02,27,09,42,63.00
2010,02,27,09,43,65.00
2010,02,27,09,44,67.00
2010,02,27,09,45,62.00
2010,02,27,09,46,56.30
2010,02,27,09,47,54.00
2010,02,27,09,48,53.00
2010,02,27,09,49,53.00
2010,02,27,09,50,54.00
2010,02,27,09,51,54.00
2010,02,27,09,52,57.80
2010,02,27,09,53,60.00
2010,02,27,09,54,60.00
2010,02,27,09,55,61.90
2010,02,27,09,56,62.00
2010,02,27,09,57,65.00
2010,02,27,09,58,74.00
2010,02,27,09,59,81.00
2010,02,27,10,00,88.00
2010,02,27,10,01,100.00
2010,02,27,10,02,107.00
2010,02,27,10,03,114.00
2010,02,27,10,04,116.00
2010,02,27,10,05,127.00
2010,02,27,10,06,136.50
2010,02,27,10,07,149.00
2010,02,27,10,08,159.40
2010,02,27,10,09,172.00
2010,02,27,10,10,180.60
2010,02,27,10,11,185.80
2010,02,27,10,12,190.00
2010,02,27,10,13,190.00
2010,02,27,10,14,186.20
2010,02,27,10,15,186.00
2010,02,27,10,16,186.00
2010,02,27,10,17,193.00
2010,02,27,10,18,201.60
2010,02,27,10,19,181.00
2010,02,27,10,20,178.00
2010,02,27,10,21,178.00
2010,02,27,10,22,213.00
2010,02,27,10,23,214.00
2010,02,27,10,24,218.00
2010,02,27,10,25,216.00
2010,02,27,10,26,213.00
2010,02,27,10,27,204.00
2010,02,27,10,28,199.00
2010,02,27,10,29,188.00
2010,02,27,10,30,183.00
2010,02,27,10,31,178.00
2010,02,27,10,32,178.00
2010,02,27,10,33,179.00
2010,02,27,10,34,176.00
2010,02,27,10,35,171.00
2010,02,27,10,36,165.00
2010,02,27,10,37,162.00
2010,02,27,10,38,162.00
2010,02,27,10,39,141.00
2010,02,27,10,40,141.00
2010,02,27,10,41,125.00
2010,02,27,10,42,116.00
2010,02,27,10,43,114.00
2010,02,27,10,44,120.00
2010,02,27,10,45,125.00
2010,02,27,10,46,123.00
2010,02,27,10,47,118.00
2010,02,27,10,48,113.00
2010,02,27,10,49,109.00
2010,02,27,10,50,109.00
2010,02,27,10,51,100.00
2010,02,27,10,52,97.00
2010,02,27,10,53,93.00
2010,02,27,10,54,95.00
2010,02,27,10,55,97.00
2010,02,27,10,56,100.00
2010,02,27,10,57,102.00
2010,02,27,10,58,104.00
2010,02,27,10,59,104.00
2010,02,27,11,00,105.00
2010,02,27,11,01,105.00
2010,02,27,11,02,109.00
2010,02,27,11,03,107.00
2010,02,27,11,04,98.00
2010,02,27,11,05,91.30
2010,02,27,11,06,91.00
2010,02,27,11,07,93.00
2010,02,27,11,08,95.00
2010,02,27,11,09,95.00
2010,02,27,11,10,98.00
2010,02,27,11,11,98.00
2010,02,27,11,12,111.00
2010,02,27,11,13,120.00
2010,02,27,11,14,129.10
2010,02,27,11,15,137.00
2010,02,27,11,16,132.00
2010,02,27,11,17,121.20
2010,02,27,11,18,113.30
2010,02,27,11,19,111.10
2010,02,27,11,20,114.00
2010,02,27,11,21,118.00
2010,02,27,11,22,122.50
2010,02,27,11,23,123.00
2010,02,27,11,24,123.00
2010,02,27,11,25,125.00
2010,02,27,11,26,128.00
2010,02,27,11,27,132.00
2010,02,27,11,28,135.00
2010,02,27,11,29,141.00
2010,02,27,11,30,153.00
2010,02,27,11,31,153.00
2010,02,27,11,32,162.00
2010,02,27,11,33,163.00
2010,02,27,11,34,165.00
2010,02,27,11,35,165.00
2010,02,27,11,36,163.10
2010,02,27,11,37,162.10
2010,02,27,11,38,162.00
2010,02,27,11,39,158.40
2010,02,27,11,40,156.10
2010,02,27,11,41,156.00
2010,02,27,11,42,156.00
2010,02,27,11,43,156.00
2010,02,27,11,44,157.80
2010,02,27,11,45,159.90
2010,02,27,11,46,161.90
2010,02,27,11,47,165.00
2010,02,27,11,48,168.60
2010,02,27,11,49,171.90
2010,02,27,11,50,177.70
2010,02,27,11,51,182.80
2010,02,27,11,52,189.60
2010,02,27,11,53,190.00
2010,02,27,11,54,209.00
2010,02,27,11,55,219.80
2010,02,27,11,56,235.20
2010,02,27,11,57,250.00
2010,02,27,11,58,260.80
2010,02,27,11,59,268.60
2010,02,27,12,00,271.00
2010,02,27,12,01,271.00
2010,02,27,12,02,267.20
2010,02,27,12,03,262.00
2010,02,27,12,04,255.40
2010,02,27,12,05,248.00
2010,02,27,12,06,243.00
2010,02,27,12,07,239.00
2010,02,27,12,08,241.00
2010,02,27,12,09,246.00
2010,02,27,12,10,243.00
2010,02,27,12,11,241.00
2010,02,27,12,12,243.00
2010,02,27,12,13,244.00
2010,02,27,12,14,244.00
2010,02,27,12,15,246.00
2010,02,27,12,16,237.00
2010,02,27,12,17,237.00
2010,02,27,12,18,246.00
2010,02,27,12,19,244.00
2010,02,27,12,20,236.00
2010,02,27,12,21,223.00
2010,02,27,12,22,223.00
2010,02,27,12,23,214.00
2010,02,27,12,24,218.00
2010,02,27,12,25,221.00
2010,02,27,12,26,223.00
2010,02,27,12,27,227.00
2010,02,27,12,28,232.00
2010,02,27,12,29,236.00
2010,02,27,12,30,243.60
2010,02,27,12,31,250.00
2010,02,27,12,32,259.00
2010,02,27,12,33,268.50
2010,02,27,12,34,279.00
2010,02,27,12,35,282.60
2010,02,27,12,36,287.80
2010,02,27,12,37,292.00
2010,02,27,12,38,279.30
2010,02,27,12,39,267.00
2010,02,27,12,40,258.00
2010,02,27,12,41,251.30
2010,02,27,12,42,244.00
2010,02,27,12,43,241.30
2010,02,27,12,44,241.00
2010,02,27,12,45,232.00
2010,02,27,12,46,229.00
2010,02,27,12,47,223.60
2010,02,27,12,48,216.40
2010,02,27,12,49,207.00
2010,02,27,12,50,199.00
2010,02,27,12,51,190.00
2010,02,27,12,52,183.70
2010,02,27,12,53,178.20
2010,02,27,12,54,174.00
2010,02,27,12,55,172.00
2010,02,27,12,56,171.10
2010,02,27,12,57,171.00
2010,02,27,12,58,167.00
2010,02,27,12,59,162.00
2010,02,27,13,00,156.00
2010,02,27,13,01,151.00
2010,02,27,13,02,148.00
2010,02,27,13,03,144.40
2010,02,27,13,04,141.30
2010,02,27,13,05,141.00
2010,02,27,13,06,139.00
2010,02,27,13,07,135.00
2010,02,27,13,08,134.00
2010,02,27,13,09,130.00
2010,02,27,13,10,128.00
2010,02,27,13,11,128.00
2010,02,27,13,12,132.00
2010,02,27,13,13,132.00
2010,02,27,13,14,144.00
2010,02,27,13,15,153.00
2010,02,27,13,16,162.00
2010,02,27,13,17,172.00
2010,02,27,13,18,185.00
2010,02,27,13,19,195.00
2010,02,27,13,20,207.00
2010,02,27,13,21,216.00
2010,02,27,13,22,223.00
2010,02,27,13,23,223.00
2010,02,27,13,24,230.00
2010,02,27,13,25,230.00
2010,02,27,13,26,227.00
2010,02,27,13,27,220.00
2010,02,27,13,28,211.00
2010,02,27,13,29,200.00
2010,02,27,13,30,190.00
2010,02,27,13,31,183.00
2010,02,27,13,32,176.00
2010,02,27,13,33,167.00
2010,02,27,13,34,160.00
2010,02,27,13,35,160.00
2010,02,27,13,36,153.00
2010,02,27,13,37,148.00
2010,02,27,13,38,142.00
2010,02,27,13,39,137.00
2010,02,27,13,40,132.00
2010,02,27,13,41,127.00
2010,02,27,13,42,123.40
2010,02,27,13,43,120.00
2010,02,27,13,44,116.00
2010,02,27,13,45,116.00
2010,02,27,13,46,113.00
2010,02,27,13,47,111.00
2010,02,27,13,48,107.00
2010,02,27,13,49,104.20
2010,02,27,13,50,102.00
2010,02,27,13,51,97.20
2010,02,27,13,52,95.00
2010,02,27,13,53,95.00
2010,02,27,13,54,93.00
2010,02,27,13,55,91.00
2010,02,27,13,56,91.00
2010,02,27,13,57,90.00
2010,02,27,13,58,90.00
2010,02,27,13,59,90.00
2010,02,27,14,00,88.00
2010,02,27,14,01,86.10
2010,02,27,14,02,84.00
2010,02,27,14,03,89.40
2010,02,27,14,04,90.00
2010,02,27,14,05,95.00
2010,02,27,14,06,95.00
2010,02,27,14,07,93.00
2010,02,27,14,08,93.00
2010,02,27,14,09,90.00
2010,02,27,14,10,88.00
2010,02,27,14,11,86.00
2010,02,27,14,12,86.00
2010,02,27,14,13,86.00
2010,02,27,14,14,88.00
2010,02,27,14,15,91.00
2010,02,27,14,16,91.00
2010,02,27,14,17,95.00
2010,02,27,14,18,95.00
2010,02,27,14,19,97.00
2010,02,27,14,20,95.00
2010,02,27,14,21,93.00
2010,02,27,14,22,91.00
2010,02,27,14,23,91.00
2010,02,27,14,24,91.00
2010,02,27,14,25,91.00
2010,02,27,14,26,91.00
2010,02,27,14,27,90.00
2010,02,27,14,28,84.00
2010,02,27,14,29,81.00
2010,02,27,14,30,79.00
2010,02,27,14,31,76.00
2010,02,27,14,32,74.00
2010,02,27,14,33,74.00
2010,02,27,14,34,76.00
2010,02,27,14,35,79.00
2010,02,27,14,36,83.00
2010,02,27,14,37,84.00
2010,02,27,14,38,86.00
2010,02,27,14,39,90.00
2010,02,27,14,40,91.00
2010,02,27,14,41,91.00
2010,02,27,14,42,88.00
2010,02,27,14,43,86.00
2010,02,27,14,44,86.00
2010,02,27,14,45,84.00
2010,02,27,14,46,83.00
2010,02,27,14,47,83.00
2010,02,27,14,48,86.00
2010,02,27,14,49,88.00
2010,02,27,14,50,88.00
2010,02,27,14,51,88.00
2010,02,27,14,52,90.00
2010,02,27,14,53,90.90
2010,02,27,14,54,90.00
2010,02,27,14,55,90.00
2010,02,27,14,56,88.00
2010,02,27,14,57,88.00
2010,02,27,14,58,86.00
2010,02,27,14,59,88.00
2010,02,27,15,00,90.00
2010,02,27,15,01,90.00
2010,02,27,15,02,91.00
2010,02,27,15,03,93.00
2010,02,27,15,04,91.00
2010,02,27,15,05,93.00
2010,02,27,15,06,90.00
2010,02,27,15,07,81.00
2010,02,27,15,08,74.00
2010,02,27,15,09,67.00
2010,02,27,15,10,65.00
2010,02,27,15,11,62.00
2010,02,27,15,12,65.00
2010,02,27,15,13,69.00
2010,02,27,15,14,69.00
2010,02,27,15,15,79.00
2010,02,27,15,16,81.00
2010,02,27,15,17,83.00
2010,02,27,15,18,83.00
2010,02,27,15,19,83.00
2010,02,27,15,20,81.00
2010,02,27,15,21,81.00
2010,02,27,15,22,81.00
2010,02,27,15,23,81.00
2010,02,27,15,24,81.00
2010,02,27,15,25,79.00
2010,02,27,15,26,77.00
2010,02,27,15,27,77.00
2010,02,27,15,28,76.00
2010,02,27,15,29,76.00
2010,02,27,15,30,74.00
2010,02,27,15,31,74.00
2010,02,27,15,32,72.00
2010,02,27,15,33,70.00
2010,02,27,15,34,70.00
2010,02,27,15,35,70.00
2010,02,27,15,36,71.90
2010,02,27,15,37,72.00
2010,02,27,15,38,72.00
2010,02,27,15,39,70.10
2010,02,27,15,40,69.00
2010,02,27,15,41,65.00
2010,02,27,15,42,63.00
2010,02,27,15,43,62.00
2010,02,27,15,44,60.00
2010,02,27,15,45,58.00
2010,02,27,15,46,58.00
2010,02,27,15,47,56.00
2010,02,27,15,48,54.00
2010,02,27,15,49,53.00
2010,02,27,15,50,53.00
2010,02,27,15,51,51.00
2010,02,27,15,52,51.00
2010,02,27,15,53,49.00
2010,02,27,15,54,49.00
2010,02,27,15,55,47.00
2010,02,27,15,56,46.00
2010,02,27,15,57,44.00
2010,02,27,15,58,42.00
2010,02,27,15,59,40.00
2010,02,27,16,00,39.00
2010,02,27,16,01,39.00
2010,02,27,16,02,39.00
2010,02,27,16,03,39.00
2010,02,27,16,04,37.00
2010,02,27,16,05,37.00
2010,02,27,16,06,37.00
2010,02,27,16,07,37.00
2010,02,27,16,08,37.00
2010,02,27,16,09,37.00
2010,02,27,16,10,37.00
2010,02,27,16,11,37.00
2010,02,27,16,12,35.00
2010,02,27,16,13,35.00
2010,02,27,16,14,35.00
2010,02,27,16,15,33.00
2010,02,27,16,16,33.00
2010,02,27,16,17,33.00
2010,02,27,16,18,35.00
2010,02,27,16,19,35.00
2010,02,27,16,20,37.00
2010,02,27,16,21,35.00
2010,02,27,16,22,35.00
2010,02,27,16,23,35.00
2010,02,27,16,24,35.00
2010,02,27,16,25,33.00
2010,02,27,16,26,33.00
2010,02,27,16,27,33.00
2010,02,27,16,28,33.00
2010,02,27,16,29,33.00
2010,02,27,16,30,32.00
2010,02,27,16,31,30.00
2010,02,27,16,32,30.00
2010,02,27,16,33,30.00
2010,02,27,16,34,28.00
2010,02,27,16,35,26.00
2010,02,27,16,36,26.00
2010,02,27,16,37,26.00
2010,02,27,16,38,26.00
2010,02,27,16,39,26.00
2010,02,27,16,40,26.00
2010,02,27,16,41,25.00
2010,02,27,16,42,25.00
2010,02,27,16,43,23.00
2010,02,27,16,44,23.00
2010,02,27,16,45,23.00
2010,02,27,16,46,23.00
2010,02,27,16,47,23.00
2010,02,27,16,48,23.00
2010,02,27,16,49,23.00
2010,02,27,16,50,23.00
2010,02,27,16,51,23.00
2010,02,27,16,52,21.00
2010,02,27,16,53,21.00
2010,02,27,16,54,21.00
2010,02,27,16,55,19.00
2010,02,27,16,56,19.00
2010,02,27,16,57,19.00
2010,02,27,16,58,19.00
2010,02,27,16,59,19.00
2010,02,27,17,00,19.00
2010,02,27,17,01,19.00
2010,02,27,17,02,19.00
2010,02,27,17,03,19.00
2010,02,27,17,04,21.00
2010,02,27,17,05,21.00
2010,02,27,17,06,21.00
2010,02,27,17,07,23.00
2010,02,27,17,08,23.00
2010,02,27,17,09,23.00
2010,02,27,17,10,23.00
2010,02,27,17,11,21.00
2010,02,27,17,12,21.00
2010,02,27,17,13,21.00
2010,02,27,17,14,21.00
2010,02,27,17,15,21.00
2010,02,27,17,16,21.00
2010,02,27,17,17,21.00
2010,02,27,17,18,21.00
2010,02,27,17,19,19.00
2010,02,27,17,20,19.00
2010,02,27,17,21,19.00
2010,02,27,17,22,19.00
2010,02,27,17,23,19.00
2010,02,27,17,24,19.00
2010,02,27,17,25,19.00
2010,02,27,17,26,16.00
2010,02,27,17,27,16.00
2010,02,27,17,28,14.00
2010,02,27,17,29,14.00